weather.gov     
National Weather Service

Terminal Aerodrome Forecast
NWS Homepage
This page is being discontinued on March 12, 2014.
The same data is available at this site. Please update your bookmarks.
Thank you, and we apologize for the inconvenience.
Please send an email to SR-SRH.Webmaster@noaa.gov with any concerns.


Current Version
Previous Version:    01  02  03  04  05  06  07  08  09  10  11  12  13  14  15  16  17  18  19  20  21  22  23  24  25  26  27  28  
[Printable]
562
FTUS46 KPDT 281700
TAFPDT
TAF
KPDT 281720Z 2818/2918 20020G30KT P6SM VCSH BKN045 OVC060
     FM282100 23018G28KT P6SM VCSH SCT035 OVC060
     FM290300 23020G30KT P6SM -SHRA OVC040
     FM291300 27010KT P6SM VCSH SCT040 OVC080=


U.S. Dept. of Commerce
NOAA National Weather Service
1325 East West Highway
Silver Spring, MD 20910
E-mail: w-nws.webmaster@noaa.gov
Page last modified: May 16, 2007
NATIONAL WEATHER SERVICE: for Safety, for Work, for Fun - FOR LIFE